Weather History for Mount Carmel, IL

Change the Weather History Date:

Thursday, April 11, 2013

  Actual Average (KLWV) Record (KLWV)
Temperature  
Mean Temperature 56 °F 54 °F  
Max Temperature 69 °F 65 °F 84 °F (2001)
Min Temperature 42 °F 44 °F 32 °F (2012)
Degree Days  
Heating Degree Days 8 11  
Month to date heating degree days 143  
Since 1 July heating degree days 4440  
Cooling Degree Days 0 1  
Month to date cooling degree days 5  
Year to date cooling degree days 7  
Growing Degree Days 6 (Base 50)    
Moisture  
Dew Point 54 °F    
Average Humidity 87    
Maximum Humidity 94    
Minimum Humidity 71    
Precipitation  
Precipitation 0.89 in 0.11 in 0.83 in (1978)
Month to date precipitation 1.23  
Year to date precipitation 9.05  
Sea Level Pressure  
Sea Level Pressure 29.67 in    
Wind  
Wind Speed 13 mph (WSW)    
Max Wind Speed 28 mph    
Max Gust Speed 37 mph    
Visibility 9 miles    
Events Rain , Thunderstorm    
T = Trace of Precipitation, MM = Missing Value Source: NWS Daily Summary

Daily Weather History Graph

Daily Weather History Graph

Search for Another Location

Airport:

Trip Planner

Search our weather history database for the weather conditions in past years. The results will help you decide how hot, cold, wet, or windy it might be!

Date:

Astronomy

Apr. 11, 2013 Rise Set
Actual Time 6:20 AM CDT 7:24 PM CDT
Civil Twilight 5:53 AM CDT 7:51 PM CDT
Nautical Twilight 5:20 AM CDT 8:23 PM CDT
Astronomical Twilight 4:47 AM CDT 8:57 PM CDT
Moon 6:52 AM CDT (4/11) 8:56 PM CDT (4/11)
Length of Visible Light 13h 58m
Length of Day
13h 03m
New Moon, 2% of the Moon is Illuminated
Apr 11
New Moon
Apr 18
First Quarter
Apr 25
Full
May 2
Last Quarter
May 9
New

Hourly Weather History & Observations

Time (CDT) Temp. Windchill Dew Point Humidity Pressure Visibility Wind Dir Wind Speed Gust Speed Precip Events Conditions
12:15 AM 69.8 °F - 62.6 °F 78% 29.76 in 10.0 mi WNW 18.4 mph 27.6 mph 0.01 in Rain , Thunderstorm Light Thunderstorms and Rain
12:35 AM 62.6 °F - 60.8 °F 94% 29.79 in 2.0 mi WNW 17.3 mph 28.8 mph 0.15 in Rain , Thunderstorm Heavy Thunderstorms and Rain
12:55 AM 62.6 °F - 60.8 °F 94% 29.77 in 10.0 mi NW 9.2 mph - 0.29 in Rain Light Rain
1:15 AM 62.6 °F - 60.8 °F 94% 29.76 in 10.0 mi Calm Calm - 0.08 in   Light Drizzle
1:35 AM 62.6 °F - 60.8 °F 94% 29.75 in 10.0 mi Calm Calm - 0.14 in Rain , Thunderstorm Rain
1:55 AM 62.6 °F - 60.8 °F 94% 29.75 in 7.0 mi Calm Calm - 0.17 in Rain Heavy Rain
2:15 AM 62.6 °F - 60.8 °F 94% 29.78 in 2.0 mi SSW 8.1 mph 16.1 mph 0.04 in Rain , Thunderstorm Heavy Thunderstorms and Rain
2:35 AM 64.4 °F - 60.8 °F 88% 29.75 in 7.0 mi SW 4.6 mph - 0.09 in Rain Heavy Rain
2:55 AM 64.4 °F - 60.8 °F 88% 29.71 in 10.0 mi SSW 18.4 mph 25.3 mph 0.14 in Rain Rain
3:15 AM 64.4 °F - 60.8 °F 88% 29.67 in 7.0 mi SSE 27.6 mph 32.2 mph 0.03 in Rain Rain
3:35 AM 66.2 °F - 60.8 °F 83% 29.66 in 10.0 mi South 23.0 mph 32.2 mph 0.06 in   Light Drizzle
3:55 AM 64.4 °F - 60.8 °F 88% 29.62 in 10.0 mi South 26.5 mph 36.8 mph 0.09 in Rain Light Rain
4:15 AM 68.0 °F - 60.8 °F 78% 29.63 in 10.0 mi South 19.6 mph 31.1 mph 0.02 in   Scattered Clouds
4:35 AM 68.0 °F - 60.8 °F 78% 29.62 in 10.0 mi South 13.8 mph - 0.04 in   Clear
4:55 AM 66.2 °F - 60.8 °F 83% 29.63 in 10.0 mi SSE 13.8 mph - 0.05 in   Clear
5:15 AM 66.2 °F - 60.8 °F 83% 29.64 in 10.0 mi South 13.8 mph - 0.01 in   Clear
5:35 AM 66.2 °F - 62.6 °F 88% 29.65 in 10.0 mi South 15.0 mph - 0.02 in   Scattered Clouds
5:55 AM 64.4 °F - 62.6 °F 94% 29.65 in 10.0 mi SSE 10.4 mph - 0.03 in   Mostly Cloudy
6:15 AM 64.4 °F - 62.6 °F 94% 29.64 in 10.0 mi SSE 12.7 mph 16.1 mph N/A   Mostly Cloudy
6:35 AM 64.4 °F - 62.6 °F 94% 29.63 in 10.0 mi SSE 13.8 mph - 0.01 in   Scattered Clouds
6:55 AM 64.4 °F - 62.6 °F 94% 29.63 in 10.0 mi SSE 12.7 mph - 0.02 in   Clear
7:15 AM 66.2 °F - 62.6 °F 88% 29.64 in 10.0 mi South 13.8 mph 19.6 mph 0.01 in   Scattered Clouds
7:35 AM 66.2 °F - 60.8 °F 83% 29.62 in 10.0 mi South 16.1 mph 20.7 mph 0.01 in   Mostly Cloudy
7:55 AM 68.0 °F - 60.8 °F 78% 29.63 in 10.0 mi South 17.3 mph - 0.02 in   Overcast
8:15 AM 68.0 °F - 60.8 °F 78% 29.64 in 10.0 mi SSW 19.6 mph 29.9 mph N/A   Overcast
8:35 AM 64.4 °F - 60.8 °F 88% 29.67 in 10.0 mi West 16.1 mph 23.0 mph 0.01 in   Overcast
8:55 AM 60.8 °F - 57.2 °F 88% 29.68 in 10.0 mi WSW 12.7 mph - 0.01 in Rain Rain
9:15 AM 60.8 °F - 57.2 °F 88% 29.67 in 10.0 mi West 10.4 mph - N/A   Overcast
9:35 AM 60.8 °F - 57.2 °F 88% 29.68 in 10.0 mi West 10.4 mph - 0.01 in   Overcast
9:55 AM 60.8 °F - 57.2 °F 88% 29.68 in 10.0 mi West 6.9 mph - 0.01 in   Overcast
10:15 AM 60.8 °F - 57.2 °F 88% 29.69 in 10.0 mi West 6.9 mph - N/A   Overcast
10:35 AM 60.8 °F - 57.2 °F 88% 29.71 in 10.0 mi SW 5.8 mph - N/A   Overcast
10:55 AM 60.8 °F - 57.2 °F 88% 29.70 in 7.0 mi WSW 5.8 mph - 0.01 in   Light Drizzle
11:15 AM 59.0 °F - 57.2 °F 94% 29.68 in 5.0 mi WSW 4.6 mph - N/A   Overcast
11:35 AM 59.0 °F - 57.2 °F 94% 29.68 in 4.0 mi WSW 3.5 mph - N/A   Overcast
12:15 PM 59.0 °F - 55.4 °F 88% 29.66 in 10.0 mi SW 5.8 mph - N/A   Light Drizzle
12:35 PM 59.0 °F - 55.4 °F 88% 29.66 in 10.0 mi SW 9.2 mph - 0.01 in Rain Rain
12:55 PM 59.0 °F - 55.4 °F 88% 29.68 in 10.0 mi WSW 10.4 mph - 0.01 in   Light Drizzle
1:15 PM 59.0 °F - 55.4 °F 88% 29.66 in 10.0 mi WSW 9.2 mph - N/A Rain Light Rain
1:35 PM 59.0 °F - 55.4 °F 88% 29.66 in 10.0 mi West 10.4 mph - N/A Rain Light Rain
1:55 PM 57.2 °F - 55.4 °F 94% 29.66 in 7.0 mi West 12.7 mph - N/A Rain Light Rain
2:15 PM 55.4 °F - 53.6 °F 94% 29.66 in 7.0 mi West 11.5 mph - N/A Rain Light Rain
2:35 PM 55.4 °F - 53.6 °F 94% 29.67 in 7.0 mi West 10.4 mph - 0.01 in   Light Drizzle
2:55 PM 55.4 °F - 53.6 °F 94% 29.65 in 7.0 mi West 9.2 mph - 0.01 in   Overcast
3:15 PM 55.4 °F - 53.6 °F 94% 29.65 in 7.0 mi West 9.2 mph - N/A Rain Light Rain
3:35 PM 55.4 °F - 53.6 °F 94% 29.65 in 3.0 mi WSW 8.1 mph - N/A Rain Rain
4:15 PM 53.6 °F - 51.8 °F 94% 29.63 in 1.5 mi WNW 9.2 mph - N/A   Light Drizzle
4:35 PM 53.6 °F - 51.8 °F 94% 29.65 in 1.8 mi West 15.0 mph - N/A Rain Rain
4:55 PM 53.6 °F - 51.8 °F 94% 29.64 in 1.8 mi WNW 8.1 mph - 0.01 in Rain Rain
5:15 PM 53.6 °F - 51.8 °F 94% 29.64 in 10.0 mi West 8.1 mph - N/A   Overcast
5:35 PM 53.6 °F - 51.8 °F 94% 29.65 in 7.0 mi West 9.2 mph - N/A   Overcast
5:55 PM 53.6 °F - 51.8 °F 94% 29.61 in 7.0 mi NW 8.1 mph - N/A   Overcast
6:15 PM 53.6 °F - 51.8 °F 94% 29.62 in 10.0 mi WNW 9.2 mph - N/A   Overcast
6:35 PM 53.6 °F - 50.0 °F 88% 29.62 in 10.0 mi WNW 11.5 mph - N/A   Overcast
6:55 PM 51.8 °F - 50.0 °F 94% 29.63 in 10.0 mi WNW 16.1 mph 19.6 mph N/A   Overcast
7:15 PM 51.8 °F - 48.2 °F 88% 29.63 in 10.0 mi WNW 15.0 mph - N/A   Overcast
7:35 PM 51.8 °F - 48.2 °F 88% 29.62 in 10.0 mi WNW 15.0 mph 20.7 mph N/A   Overcast
7:55 PM 51.8 °F - 46.4 °F 82% 29.63 in 10.0 mi WNW 17.3 mph - 0.01 in   Overcast
8:15 PM 51.8 °F - 46.4 °F 82% 29.64 in 10.0 mi WNW 19.6 mph - N/A   Overcast
8:35 PM 50.0 °F - 44.6 °F 82% 29.66 in 10.0 mi WNW 16.1 mph 20.7 mph N/A   Overcast
8:55 PM 50.0 °F - 44.6 °F 82% 29.66 in 10.0 mi WNW 18.4 mph 23.0 mph N/A   Overcast
9:15 PM 50.0 °F - 42.8 °F 76% 29.68 in 10.0 mi WNW 17.3 mph 24.2 mph N/A   Overcast
9:35 PM 50.0 °F - 42.8 °F 76% 29.69 in 10.0 mi West 16.1 mph 19.6 mph N/A   Overcast
9:55 PM 48.2 °F - 41.0 °F 76% 29.68 in 10.0 mi WNW 15.0 mph - N/A   Overcast
10:15 PM 46.4 °F 40.4 °F 39.2 °F 76% 29.69 in 10.0 mi WNW 13.8 mph - N/A   Overcast
10:35 PM 46.4 °F 39.5 °F 39.2 °F 76% 29.70 in 10.0 mi WNW 17.3 mph - N/A   Mostly Cloudy
10:55 PM 44.6 °F 36.9 °F 37.4 °F 76% 29.71 in 10.0 mi WNW 18.4 mph 26.5 mph N/A   Clear
11:15 PM 44.6 °F 36.4 °F 37.4 °F 76% 29.71 in 10.0 mi WNW 20.7 mph 26.5 mph N/A   Scattered Clouds
11:35 PM 44.6 °F 36.9 °F 35.6 °F 71% 29.72 in 10.0 mi WNW 18.4 mph 24.2 mph 0.01 in   Clear
11:55 PM 42.8 °F 35.8 °F 35.6 °F 76% 29.73 in 10.0 mi WNW 13.8 mph - 0.01 in   Clear